Columbia Airport, CA

2:03 AM PDT on September 21, 2019 (GMT -0700)
Columbia Airport

Weather History for KO22 - August, 2019

Change the Weather History Date:

Saturday, August 24, 2019

  Actual Average (WUND) Record (WUND)
Temperature  
Mean Temperature 82 °F -  
Max Temperature 98 °F - - (-1)
Min Temperature 66 °F - - (-1)
Cooling Degree Days 17    
Growing Degree Days 32 (Base 50)    
Moisture  
Dew Point 55 °F    
Average Humidity 46    
Maximum Humidity 78    
Minimum Humidity 21    
Precipitation  
Precipitation 0.00 in - - ()
Sea Level Pressure  
Sea Level Pressure 29.96 in    
Wind  
Wind Speed 2 mph (SW)    
Max Wind Speed 8 mph    
Max Gust Speed 13 mph    
Visibility 10 miles    
Events      
Averages and records for this station are not official NWS values.
T = Trace of Precipitation, MM = Missing Value Source: NWS Daily Summary

Daily Weather History Graph

Daily Weather History Graph

Search for Another Location

Airport or City:

Astronomy

Aug. 24, 2019 Rise Set
Actual Time 6:24 AM PDT 7:42 PM PDT
Civil Twilight 5:57 AM PDT 8:10 PM PDT
Nautical Twilight 5:24 AM PDT 8:43 PM PDT
Astronomical Twilight 4:49 AM PDT 9:17 PM PDT
Moon 12:22 AM PDT (8/24) 3:01 PM PDT (8/24)
Length of Visible Light 14h 13m
Length of Day
13h 18m
Last Quarter, 38% of the Moon is Illuminated
Aug 24
Last Quarter
Aug 30
New
Sep 5
First Quarter
Sep 13
Full
Sep 21
Last Quarter

Hourly Weather History & Observations

Time (PDT) Temp. Heat Index Dew Point Humidity Pressure Visibility Wind Dir Wind Speed Gust Speed Precip Events Conditions
12:35 AM 69.8 °F - 57.2 °F 64% 29.90 in 10.0 mi North - - N/A   Clear
1:15 AM 69.8 °F - 57.2 °F 64% 29.90 in 10.0 mi Calm Calm - N/A   Clear
1:35 AM 69.8 °F - 57.2 °F 64% 29.90 in 10.0 mi Calm Calm - N/A   Clear
1:55 AM 68.0 °F - 57.2 °F 68% 29.90 in 10.0 mi Calm Calm - N/A   Partly Cloudy
2:15 AM 68.0 °F - 57.2 °F 68% 29.90 in 10.0 mi Calm Calm - N/A   Clear
2:35 AM 68.0 °F - 57.2 °F 68% 29.91 in 10.0 mi Calm Calm - N/A   Clear
2:55 AM 68.0 °F - 57.2 °F 68% 29.91 in 10.0 mi North - - N/A   Clear
3:15 AM 68.0 °F - 57.2 °F 68% 29.91 in 10.0 mi Calm Calm - N/A   Clear
3:35 AM 66.2 °F - 57.2 °F 73% 29.91 in 10.0 mi Calm Calm - N/A   Clear
4:15 AM 66.2 °F - 57.2 °F 73% 29.92 in 10.0 mi North - - N/A   Clear
4:35 AM 66.2 °F - 57.2 °F 73% 29.92 in 10.0 mi Calm Calm - N/A   Clear
4:55 AM 66.2 °F - 57.2 °F 73% 29.92 in 10.0 mi Calm Calm - N/A   Clear
5:15 AM 66.2 °F - 57.2 °F 73% 29.92 in 10.0 mi North - - N/A   Clear
5:35 AM 66.2 °F - 57.2 °F 73% 29.93 in 10.0 mi Calm Calm - N/A   Clear
5:55 AM 66.2 °F - 57.2 °F 73% 29.93 in 10.0 mi Calm Calm - N/A   Clear
6:15 AM 66.2 °F - 57.2 °F 73% 29.94 in 10.0 mi Calm Calm - N/A   Clear
6:35 AM 66.2 °F - 57.2 °F 73% 29.94 in 10.0 mi Calm Calm - N/A   Clear
6:55 AM 66.2 °F - 57.2 °F 73% 29.95 in 10.0 mi North - - N/A   Clear
7:15 AM 66.2 °F - 59.0 °F 78% 29.96 in 10.0 mi Calm Calm - N/A   Clear
7:35 AM 69.8 °F - 60.8 °F 73% 29.96 in 10.0 mi Calm Calm - N/A   Clear
7:55 AM 73.4 °F - 60.8 °F 65% 29.97 in 10.0 mi Calm Calm - N/A   Clear
8:15 AM 77.0 °F - 60.8 °F 57% 29.97 in 10.0 mi Calm Calm - N/A   Clear
8:55 AM 82.4 °F 82.9 °F 60.8 °F 48% 29.98 in 10.0 mi Calm Calm - N/A   Clear
9:15 AM 84.2 °F 83.5 °F 57.2 °F 40% 29.98 in 10.0 mi Calm Calm - N/A   Clear
9:35 AM 86.0 °F 84.9 °F 57.2 °F 37% 29.98 in 10.0 mi Calm Calm - N/A   Clear
9:55 AM 86.0 °F 84.9 °F 57.2 °F 37% 29.98 in 10.0 mi Calm Calm - N/A   Clear
10:15 AM 87.8 °F 86.5 °F 57.2 °F 35% 29.99 in 10.0 mi Calm Calm - N/A   Clear
10:35 AM 89.6 °F 88.9 °F 59.0 °F 36% 29.99 in 10.0 mi Variable 5.8 mph - N/A   Clear
11:15 AM 89.6 °F 88.9 °F 59.0 °F 36% 29.99 in 10.0 mi Variable 5.8 mph - N/A   Clear
11:35 AM 91.4 °F 89.9 °F 57.2 °F 31% 29.99 in 10.0 mi Variable 6.9 mph - N/A   Clear
11:55 AM 91.4 °F 89.9 °F 57.2 °F 31% 29.99 in 10.0 mi Variable 5.8 mph - N/A   Clear
12:15 PM 91.4 °F 89.9 °F 57.2 °F 31% 29.99 in 10.0 mi Variable 4.6 mph - N/A   Clear
12:35 PM 93.2 °F 91.3 °F 55.4 °F 28% 29.99 in 10.0 mi Variable 6.9 mph - N/A   Clear
12:55 PM 95.0 °F 93.0 °F 55.4 °F 26% 29.99 in 10.0 mi Variable 5.8 mph - N/A   Clear
1:15 PM 95.0 °F 92.7 °F 53.6 °F 25% 29.99 in 10.0 mi Variable 6.9 mph - N/A   Clear
1:35 PM 95.0 °F 92.7 °F 53.6 °F 25% 29.99 in 10.0 mi Variable 6.9 mph - N/A   Clear
1:55 PM 96.8 °F - 51.8 °F 22% 29.99 in 10.0 mi Variable 6.9 mph - N/A   Clear
2:15 PM 96.8 °F - 51.8 °F 22% 29.99 in 10.0 mi Variable 5.8 mph - N/A   Clear
2:35 PM 95.0 °F - 51.8 °F 23% 29.98 in 10.0 mi Variable 4.6 mph - N/A   Clear
2:55 PM 98.6 °F - 51.8 °F 21% 29.98 in 10.0 mi Variable 6.9 mph - N/A   Clear
3:15 PM 96.8 °F - 51.8 °F 22% 29.97 in 10.0 mi Variable 6.9 mph - N/A   Clear
3:35 PM 96.8 °F - 51.8 °F 22% 29.97 in 10.0 mi Variable 6.9 mph - N/A   Clear
3:55 PM 96.8 °F - 51.8 °F 22% 29.97 in 10.0 mi Variable 5.8 mph - N/A   Clear
4:15 PM 96.8 °F - 51.8 °F 22% 29.97 in 10.0 mi Variable 5.8 mph - N/A   Clear
4:35 PM 96.8 °F - 51.8 °F 22% 29.97 in 10.0 mi Variable 6.9 mph - N/A   Clear
4:55 PM 95.0 °F - 51.8 °F 23% 29.97 in 10.0 mi SW 4.6 mph - N/A   Clear
5:15 PM 95.0 °F - 51.8 °F 23% 29.97 in 10.0 mi Variable 8.1 mph - N/A   Clear
5:35 PM 93.2 °F - 51.8 °F 24% 29.97 in 10.0 mi Variable 6.9 mph - N/A   Clear
5:55 PM 93.2 °F - 51.8 °F 24% 29.97 in 10.0 mi SW 4.6 mph 11.5 mph N/A   Clear
6:15 PM 91.4 °F - 51.8 °F 26% 29.97 in 10.0 mi Variable 6.9 mph 12.7 mph N/A   Clear
6:35 PM 89.6 °F - 51.8 °F 27% 29.97 in 10.0 mi Variable 6.9 mph - N/A   Clear
6:55 PM 89.6 °F - 51.8 °F 27% 29.98 in 10.0 mi Variable 5.8 mph - N/A   Clear
7:15 PM 87.8 °F - 51.8 °F 29% 29.98 in 10.0 mi Variable 4.6 mph - N/A   Clear
7:35 PM 86.0 °F - 51.8 °F 31% 29.98 in 10.0 mi Calm Calm - N/A   Clear
7:55 PM 82.4 °F - 51.8 °F 35% 29.98 in 10.0 mi Variable 4.6 mph - N/A   Clear
8:15 PM 80.6 °F - 51.8 °F 37% 29.98 in 10.0 mi Calm Calm - N/A   Clear
8:35 PM 78.8 °F - 55.4 °F 44% 29.99 in 10.0 mi Calm Calm - N/A   Clear
8:55 PM 77.0 °F - 55.4 °F 47% 29.99 in 10.0 mi Calm Calm - N/A   Clear
9:15 PM 77.0 °F - 55.4 °F 47% 30.00 in 10.0 mi Calm Calm - N/A   Clear
9:55 PM 75.2 °F - 55.4 °F 50% 30.00 in 10.0 mi Calm Calm - N/A   Clear
10:15 PM 73.4 °F - 55.4 °F 53% 30.01 in 10.0 mi Calm Calm - N/A   Clear
10:55 PM 71.6 °F - 55.4 °F 57% 30.01 in 10.0 mi Calm Calm - N/A   Clear
11:35 PM 71.6 °F - 55.4 °F 57% 30.01 in 10.0 mi Calm Calm - N/A   Clear
11:55 PM 69.8 °F - 55.4 °F 60% 30.01 in 10.0 mi Calm Calm - N/A   Clear